EW4692 Weather Reports


time (UTC)temp
F
wind
direction
speed
knots
gust
knots
rain 1hr
in
rain 24hr
in
rain mn
in
humidity
%
barometer
mb
20260504190205 60 265 3.5 9.6 0.00 0.06 0.06 72 1010.0
20260504190021 59 256 3.5 8.7 0.00 0.06 0.06 72 1010.4
20260504185705 60 294 1.7 2.6 0.00 0.06 0.06 72 1010.0
20260504184705 60 263 0.9 3.5 0.00 0.06 0.06 72 1009.5
20260504184521 60 259 0.0 2.6 0.00 0.06 0.06 72 1009.8
20260504184206 60 261 1.7 3.5 0.00 0.06 0.06 72 1009.5
20260504183705 60 324 1.7 5.2 0.00 0.06 0.06 72 1009.4
20260504183205 60 330 1.7 5.2 0.00 0.06 0.06 72 1009.3
20260504183025 60 311 0.9 5.2 0.00 0.06 0.06 72 1009.7
20260504182206 60 305 1.7 3.5 0.00 0.06 0.06 72 1009.4
20260504181705 60 257 1.7 3.5 0.00 0.06 0.06 71 1009.3
20260504181622 60 276 1.7 3.5 0.00 0.06 0.06 71 1009.7
20260504181207 60 259 1.7 3.5 0.00 0.06 0.06 72 1009.3
20260504180705 60 9 1.7 3.5 0.00 0.06 0.06 71 1009.3
20260504180205 60 329 0.9 3.5 0.00 0.06 0.06 71 1009.3
20260504180019 60 5 0.9 2.6 0.00 0.06 0.06 71 1009.7
20260504175705 60 212 0.9 3.5 0.00 0.06 0.06 71 1009.4
20260504174705 60 269 1.7 3.5 0.00 0.06 0.06 71 1009.4
20260504174518 60 266 1.7 3.5 0.00 0.06 0.06 71 1009.7
20260504174206 60 258 0.9 3.5 0.00 0.06 0.06 71 1009.3
20260504173705 60 27 0.9 3.5 0.00 0.06 0.06 71 1009.3
20260504173206 60 321 0.9 3.5 0.00 0.06 0.06 71 1009.3
20260504173016 60 338 0.9 3.5 0.00 0.06 0.06 71 1009.6
20260504172705 60 331 1.7 3.5 0.01 0.06 0.06 71 1009.3
20260504172206 60 336 0.9 4.3 0.01 0.06 0.06 71 1009.5
20260504171516 60 328 0.0 4.3 0.01 0.06 0.06 71 1009.8
20260504171206 60 323 1.7 4.3 0.02 0.06 0.06 71 1009.4
20260504170705 60 321 0.9 3.5 0.02 0.06 0.06 70 1009.5
20260504170205 60 32 0.9 3.5 0.02 0.06 0.06 70 1009.6
20260504160205 60 48 2.6 8.7 0.04 0.05 0.05 68 1010.1
20260504150706 62 13 3.5 8.7 0.00 0.01 0.01 63 1010.6
20260504150206 63 98 3.5 8.7 0.00 0.01 0.01 63 1010.6
20260504140705 63 59 3.5 9.6 0.00 0.01 0.01 62 1010.9
20260504140206 63 61 3.5 9.6 0.00 0.01 0.01 62 1011.0
20260504130723 62 19 2.6 7.8 0.00 0.01 0.01 63 1011.3
20260504130205 62 104 2.6 7.8 0.00 0.01 0.01 63 1011.4
20260504110705 59 344 3.5 7.8 0.00 0.01 0.01 64 1012.4
20260504110205 59 344 2.6 7.8 0.00 0.01 0.01 64 1012.7
20260504100205 58 5 3.5 11.3 0.00 0.01 0.01 64 1013.0
20260504081705 59 238 3.5 9.6 0.00 0.01 0.01 64 1012.6
20260504081536 58 355 2.6 8.7 0.00 0.01 0.01 64 1012.8
20260504081205 59 40 3.5 10.4 0.00 0.01 0.01 64 1012.4
20260504080705 60 331 4.3 10.4 0.00 0.01 0.01 64 1012.3
20260504080205 60 5 3.5 10.4 0.00 0.01 0.01 64 1012.2
20260504070206 64 97 3.5 6.1 0.00 0.01 0.01 66 1011.4
20260504050705 62 90 2.6 6.1 0.00 0.01 0.01 71 1011.0
20260504050206 62 96 2.6 6.1 0.00 0.01 0.01 71 1011.0
20260504050008 62 123 1.7 6.1 0.00 0.01 0.01 71 1011.4
20260504045705 62 89 2.6 7.0 0.00 0.01 0.01 71 1011.0
20260504044705 62 94 2.6 7.0 0.00 0.01 0.01 71 1011.1
20260504044511 62 67 0.9 7.0 0.00 0.01 0.01 71 1011.5
20260504044205 62 94 2.6 7.0 0.00 0.01 0.01 71 1011.2
20260504043705 62 118 2.6 7.0 0.00 0.01 0.01 71 1011.3
20260504043206 62 95 2.6 7.0 0.00 0.01 0.01 71 1011.2
20260504043005 62 88 0.9 7.0 0.00 0.01 0.01 71 1011.5
20260504042705 62 128 3.5 7.0 0.00 0.01 0.01 71 1011.2
20260504041705 62 116 3.5 7.0 0.00 0.01 0.01 71 1011.2
20260504041504 62 86 2.6 7.0 0.00 0.01 0.01 71 1011.6
20260504040205 62 101 4.3 9.6 0.00 0.01 0.01 71 1011.2
20260504040004 62 110 3.5 9.6 0.00 0.01 0.01 71 1011.6
20260504035706 62 117 5.2 10.4 0.00 0.01 0.01 71 1011.2
20260504035205 62 105 4.3 13.9 0.00 0.01 0.01 71 1011.2
20260504034705 62 46 5.2 13.9 0.00 0.01 0.01 71 1011.2
20260504034502 62 92 4.3 13.9 0.00 0.01 0.01 71 1011.6
20260504034206 62 81 5.2 13.9 0.00 0.01 0.01 71 1011.4
20260504033706 62 88 5.2 9.6 0.00 0.01 0.01 71 1011.5
20260504033206 62 88 5.2 9.6 0.00 0.01 0.01 71 1011.5
20260504033103 61 78 5.2 9.6 0.00 0.01 0.01 71 1011.8
20260504032705 62 117 5.2 11.3 0.00 0.01 0.01 71 1011.6
20260504032205 62 80 5.2 11.3 0.00 0.01 0.01 71 1011.6
20260504031705 62 153 4.3 9.6 0.00 0.01 0.01 71 1011.7
20260504031604 61 87 5.2 11.3 0.00 0.01 0.01 71 1012.0
20260504031206 62 94 4.3 9.6 0.00 0.01 0.01 71 1011.7
20260504030705 62 132 5.2 9.6 0.00 0.01 0.01 71 1011.7
20260504030206 62 138 4.3 8.7 0.00 0.01 0.01 70 1011.8
20260504030055 62 109 4.3 9.6 0.00 0.01 0.01 70 1012.1
20260504025705 62 71 2.6 6.1 0.00 0.01 0.01 70 1011.8
20260504025205 62 92 2.6 7.0 0.00 0.01 0.01 70 1011.9
20260504024705 62 101 3.5 7.0 0.00 0.01 0.01 70 1011.9
20260504024555 61 135 2.6 7.8 0.00 0.01 0.01 70 1012.3
20260504024206 62 92 3.5 9.6 0.00 0.01 0.01 70 1011.9
20260504023705 62 99 3.5 11.3 0.00 0.01 0.01 70 1012.0
20260504023206 62 76 4.3 11.3 0.00 0.01 0.01 70 1012.0
20260504023052 61 115 2.6 11.3 0.00 0.01 0.01 70 1012.4
20260504022206 62 108 4.3 12.2 0.00 0.01 0.01 70 1012.0
20260504021705 62 94 5.2 12.2 0.00 0.01 0.01 70 1012.1
20260504021550 61 87 5.2 12.2 0.00 0.01 0.01 70 1012.4
20260504021206 62 101 5.2 12.2 0.00 0.01 0.01 70 1012.2
20260504020705 62 98 5.2 13.9 0.00 0.01 0.01 70 1012.2
20260504020205 62 88 4.3 13.9 0.00 0.01 0.01 70 1012.2
20260504020049 61 84 5.2 13.9 0.00 0.01 0.01 70 1012.5
20260504015705 62 80 4.3 10.4 0.00 0.01 0.01 70 1012.2
20260504015206 62 91 4.3 10.4 0.00 0.01 0.01 70 1012.2
20260504014556 61 80 6.1 10.4 0.00 0.01 0.01 70 1012.5
20260504013205 61 161 4.3 11.3 0.00 0.01 0.01 70 1012.2
20260504013048 61 105 4.3 11.3 0.00 0.01 0.01 70 1012.6
20260504012705 61 69 4.3 11.3 0.00 0.01 0.01 70 1012.2
20260504012206 61 88 4.3 10.4 0.00 0.01 0.01 70 1012.2
20260504011706 61 113 4.3 10.4 0.00 0.01 0.01 70 1012.2
20260504011548 61 94 4.3 10.4 0.00 0.01 0.01 70 1012.6
20260504011205 61 111 4.3 10.4 0.00 0.01 0.01 70 1012.4
20260504010705 61 97 4.3 10.4 0.00 0.01 0.01 70 1012.4
20260504010051 61 138 5.2 10.4 0.00 0.01 0.01 69 1012.7
20260504005705 61 111 4.3 9.6 0.00 0.01 0.01 69 1012.4
20260504005206 61 78 3.5 9.6 0.00 0.01 0.01 69 1012.4
20260504004705 61 94 3.5 10.4 0.00 0.01 0.01 69 1012.4
20260504004542 61 96 2.6 8.7 0.00 0.01 0.01 69 1012.8
20260504004205 61 118 5.2 10.4 0.00 0.01 0.01 69 1012.4
20260504003705 61 73 5.2 10.4 0.00 0.01 0.01 69 1012.6
20260504003206 61 104 5.2 11.3 0.00 0.01 0.01 69 1012.6
20260504003041 61 83 4.3 10.4 0.00 0.01 0.01 69 1012.9
20260504002705 61 106 5.2 11.3 0.00 0.01 0.01 69 1012.6
20260504002206 61 83 5.2 11.3 0.00 0.01 0.01 69 1012.6
20260504001705 61 92 5.2 9.6 0.00 0.01 0.01 69 1012.7
20260504001545 61 110 5.2 9.6 0.00 0.01 0.01 69 1012.9
20260504001206 61 150 4.3 7.0 0.01 0.01 0.01 69 1012.6
20260504000705 61 136 2.6 7.8 0.01 0.01 0.01 69 1012.7
20260504000206 61 94 2.6 7.8 0.01 0.01 0.01 69 1012.8
20260504000042 60 114 2.6 7.8 0.01 0.01 0.01 69 1013.2
20260503235705 61 97 2.6 7.8 0.01 0.01 0.01 69 1012.9
20260503235231 61 94 2.6 7.8 0.01 0.01 0.01 69 1013.0
20260503234705 61 114 3.5 10.4 0.01 0.01 0.01 68 1013.0
20260503234532 60 100 1.7 7.8 0.01 0.01 0.01 68 1013.4
20260503234205 61 125 3.5 10.4 0.01 0.01 0.01 68 1013.1
20260503233705 61 145 3.5 10.4 0.01 0.01 0.01 68 1013.1
20260503233030 60 184 3.5 9.6 0.01 0.01 0.01 68 1013.5
20260503232705 61 88 5.2 12.2 0.01 0.01 0.01 68 1013.2
20260503232206 61 84 4.3 12.2 0.01 0.01 0.01 68 1013.3
20260503231705 61 132 2.6 7.8 0.01 0.01 0.01 68 1013.3
20260503231527 61 92 1.7 7.0 0.01 0.01 0.01 68 1013.7
20260503231206 61 96 2.6 7.8 0.00 0.00 0.00 68 1013.3
20260503230205 61 102 4.3 8.7 0.00 0.00 0.00 68 1013.3
20260503230026 61 90 4.3 8.7 0.00 0.00 0.00 68 1013.7
20260503225705 61 99 3.5 7.8 0.00 0.00 0.00 68 1013.4
20260503225206 61 97 3.5 7.8 0.00 0.00 0.00 68 1013.4
20260503224705 61 95 4.3 9.6 0.00 0.00 0.00 67 1013.4
20260503224528 61 67 3.5 7.8 0.00 0.00 0.00 68 1013.7
20260503224205 61 98 4.3 9.6 0.00 0.00 0.00 67 1013.4
20260503223205 61 128 4.3 10.4 0.00 0.00 0.00 67 1013.5
20260503223021 61 111 3.5 10.4 0.00 0.00 0.00 67 1013.9
20260503222206 62 107 3.5 8.7 0.00 0.00 0.00 67 1013.6
20260503221706 62 66 3.5 10.4 0.00 0.00 0.00 67 1013.7
20260503221519 61 86 3.5 7.0 0.00 0.00 0.00 67 1014.2
20260503221205 62 111 3.5 10.4 0.00 0.00 0.00 67 1013.8
20260503220705 62 105 3.5 11.3 0.00 0.00 0.00 67 1013.9
20260503220205 62 95 4.3 11.3 0.00 0.00 0.00 67 1014.0
20260503220020 61 106 2.6 8.7 0.00 0.00 0.00 67 1014.3
20260503215705 62 93 4.3 11.3 0.00 0.00 0.00 67 1014.0
20260503215206 62 97 3.5 11.3 0.00 0.00 0.00 67 1014.1
20260503214705 62 109 3.5 11.3 0.00 0.00 0.00 67 1014.1
20260503214524 62 130 2.6 10.4 0.00 0.00 0.00 66 1014.4
20260503214206 62 132 5.2 11.3 0.00 0.00 0.00 66 1014.1
20260503213705 62 64 5.2 10.4 0.00 0.00 0.00 66 1014.1
20260503213205 62 84 5.2 10.4 0.00 0.00 0.00 66 1014.0
20260503213015 62 95 4.3 10.4 0.00 0.00 0.00 66 1014.4
20260503212705 62 113 5.2 10.4 0.00 0.00 0.00 66 1014.1
20260503212206 62 84 5.2 8.7 0.00 0.00 0.00 66 1014.1
20260503211705 62 93 4.3 8.7 0.00 0.00 0.00 66 1014.2
20260503211514 62 106 3.5 8.7 0.00 0.00 0.00 66 1014.6
20260503210205 62 99 4.3 10.4 0.00 0.00 0.00 66 1014.4
20260503210036 62 130 3.5 10.4 0.00 0.00 0.00 66 1014.8
20260503205705 63 106 5.2 10.4 0.00 0.00 0.00 66 1014.3
20260503205205 63 92 4.3 10.4 0.00 0.00 0.00 66 1014.3
20260503204705 63 83 5.2 8.7 0.00 0.00 0.00 66 1014.2
20260503204513 62 129 4.3 8.7 0.00 0.00 0.00 66 1014.6
20260503204205 63 81 4.3 12.2 0.00 0.00 0.00 66 1014.3
20260503203205 63 90 6.1 12.2 0.00 0.00 0.00 65 1014.2
20260503203014 62 98 7.8 12.2 0.00 0.00 0.00 65 1014.5
20260503202705 63 88 6.1 12.2 0.00 0.00 0.00 65 1014.2
20260503202206 63 95 6.1 12.2 0.00 0.00 0.00 65 1014.1
20260503201705 63 92 5.2 11.3 0.00 0.00 0.00 65 1014.1
20260503201513 62 118 5.2 11.3 0.00 0.00 0.00 65 1014.4
20260503201205 63 92 5.2 11.3 0.00 0.00 0.00 65 1014.1
20260503200705 63 154 6.1 11.3 0.00 0.00 0.00 65 1014.2
20260503200206 63 98 6.1 11.3 0.00 0.00 0.00 64 1014.2
20260503200016 62 96 6.1 11.3 0.00 0.00 0.00 64 1014.6
20260503195705 63 132 5.2 10.4 0.00 0.00 0.00 64 1014.2
20260503195206 63 94 5.2 11.3 0.00 0.00 0.00 64 1014.1
20260503194705 63 128 5.2 11.3 0.00 0.00 0.00 64 1014.1
20260503194512 62 122 4.3 9.6 0.00 0.00 0.00 63 1014.5
20260503194206 63 85 5.2 11.3 0.00 0.00 0.00 63 1014.1
20260503193011 62 129 5.2 14.8 0.00 0.00 0.00 63 1014.3
20260503192206 63 84 5.2 13.0 0.00 0.00 0.00 63 1013.9
20260503191705 62 65 4.3 11.3 0.00 0.00 0.00 63 1013.9
20260503191510 62 107 4.3 9.6 0.00 0.00 0.00 63 1014.3
20260503191205 62 111 4.3 12.2 0.00 0.00 0.00 64 1013.9